Ames, IA

11:29 AM CDT on September 29, 2016 (GMT -0500)
Ames Municipal

Weather History for KAMW - August, 2014

Change the Weather History Date:

Sunday, August 10, 2014

  Actual Average Record
Temperature  
Mean Temperature 70 °F 72 °F  
Max Temperature 78 °F 82 °F 91 °F (2016)
Min Temperature 62 °F 62 °F 52 °F (2004)
Degree Days  
Heating Degree Days 0 0  
Month to date heating degree days 0 0  
Since 1 June heating degree days 16 28  
Since 1 July heating degree days 12 4  
Cooling Degree Days 5 7  
Month to date cooling degree days 55 77  
Year to date cooling degree days 436 563  
Since 1 June cooling degree days 359 514  
Growing Degree Days 20 (Base 50)    
Moisture  
Dew Point 64 °F    
Average Humidity 82    
Maximum Humidity 100    
Minimum Humidity 64    
Precipitation  
Precipitation 0.00 in 0.14 in 3.86 in (2010)
Month to date precipitation 1.27 1.47  
Sea Level Pressure  
Sea Level Pressure 30.02 in    
Wind  
Wind Speed 3 mph (SSE)    
Max Wind Speed 9 mph    
Max Gust Speed 11 mph    
Visibility 7 miles    
Events      
T = Trace of Precipitation, MM = Missing Value Source: NWS Daily Summary

Daily Weather History Graph

Daily Weather History Graph

Search for Another Location

Airport or City:

Trip Planner

Search our weather history database for the weather conditions in past years. The results will help you decide how hot, cold, wet, or windy it might be!

Date:

Astronomy

Aug. 10, 2014 Rise Set
Actual Time 6:17 AM CDT 8:21 PM CDT
Civil Twilight 5:46 AM CDT 8:52 PM CDT
Nautical Twilight 5:09 AM CDT 9:29 PM CDT
Astronomical Twilight 4:27 AM CDT 10:10 PM CDT
Moon 8:07 PM CDT (8/10) 6:11 AM CDT (8/10)
Length of Visible Light 15h 05m
Length of Day
14h 04m
Full, 100% of the Moon is Illuminated
Aug 10
Full
Aug 10
Full
Aug 17
Last Quarter
Aug 25
New
Sep 2
First Quarter

Hourly Weather History & Observations

Time (CDT) Temp. Dew Point Humidity Pressure Visibility Wind Dir Wind Speed Gust Speed Precip Events Conditions
12:53 AM 64.9 °F 63.0 °F 93% 30.02 in 8.0 mi Calm Calm - N/A   Clear
1:53 AM 63.0 °F 62.1 °F 97% 30.02 in 5.0 mi ESE 3.5 mph - N/A   Clear
2:53 AM 63.0 °F 62.1 °F 97% 30.02 in 6.0 mi Calm Calm - N/A   Clear
3:53 AM 63.0 °F 62.1 °F 97% 30.02 in 6.0 mi Calm Calm - N/A   Clear
4:53 AM 63.0 °F 62.1 °F 97% 30.02 in 6.0 mi Calm Calm - N/A   Mostly Cloudy
5:53 AM 63.0 °F 62.1 °F 97% 30.02 in 6.0 mi Calm Calm - N/A   Mostly Cloudy
6:53 AM 64.9 °F 62.1 °F 90% 30.04 in 4.0 mi Calm Calm - N/A   Overcast
7:53 AM 66.9 °F 63.0 °F 87% 30.03 in 5.0 mi Calm Calm - N/A   Mostly Cloudy
9:53 AM 73.0 °F 66.0 °F 79% 30.04 in 7.0 mi SE 4.6 mph - N/A   Clear
10:53 AM 75.9 °F 66.0 °F 71% 30.05 in 8.0 mi South 8.1 mph - N/A   Mostly Cloudy
11:53 AM 75.9 °F 66.0 °F 71% 30.05 in 9.0 mi ESE 4.6 mph - N/A   Mostly Cloudy
12:53 PM 78.1 °F 66.0 °F 66% 30.04 in 9.0 mi Variable 4.6 mph - N/A   Partly Cloudy
1:53 PM 75.9 °F 64.0 °F 67% 30.04 in 9.0 mi SSE 3.5 mph - N/A   Clear
3:53 PM 77.0 °F 64.9 °F 66% 30.01 in 9.0 mi SE 3.5 mph - N/A   Clear
4:53 PM 75.9 °F 66.0 °F 71% 30.00 in 9.0 mi SSW 3.5 mph - N/A   Clear
5:53 PM 75.9 °F 66.0 °F 71% 30.01 in 8.0 mi West 3.5 mph - N/A   Clear
7:53 PM 73.9 °F 66.9 °F 79% 29.99 in 7.0 mi Calm Calm - N/A   Partly Cloudy
8:53 PM 69.1 °F 66.9 °F 93% 29.99 in 6.0 mi Calm Calm - N/A   Clear
9:53 PM 66.9 °F 64.9 °F 93% 29.99 in 4.0 mi WSW 3.5 mph - N/A   Clear
11:53 PM 66.9 °F 66.0 °F 97% 30.00 in 3.0 mi South 3.5 mph - N/A   Overcast